Rawlins, WY

12:41 PM MDT on August 23, 2017 (GMT -0600)
Rawlins Municipal

Weather History for KRWL - January, 2013

Change the Weather History Date:

Wednesday, January 16, 2013

  Actual Average Record
Temperature  
Mean Temperature 15 °F 22 °F  
Max Temperature 25 °F 31 °F 48 °F (1974)
Min Temperature 5 °F 12 °F -20 °F (1957)
Degree Days  
Heating Degree Days 50 43  
Month to date heating degree days 856 688  
Since 1 July heating degree days 3807 4142  
Cooling Degree Days 0 0  
Month to date cooling degree days 0 0  
Year to date cooling degree days 0 0  
Moisture  
Dew Point 7 °F    
Average Humidity 66    
Maximum Humidity 76    
Minimum Humidity 55    
Precipitation  
Precipitation 0.00 in 0.01 in 0.24 in (1956)
Month to date precipitation T 0.20  
Year to date precipitation T 0.20  
Sea Level Pressure  
Sea Level Pressure 30.53 in    
Wind  
Wind Speed 12 mph (WSW)    
Max Wind Speed 31 mph    
Max Gust Speed 39 mph    
Visibility 10 miles    
Events      
T = Trace of Precipitation, MM = Missing Value Source: NWS Daily Summary

Daily Weather History Graph

Daily Weather History Graph

Search for Another Location

Airport or City:

Trip Planner

Search our weather history database for the weather conditions in past years. The results will help you decide how hot, cold, wet, or windy it might be!

Date:

Astronomy

Jan. 16, 2013 Rise Set
Actual Time 7:33 AM MST 5:04 PM MST
Civil Twilight 7:02 AM MST 5:35 PM MST
Nautical Twilight 6:28 AM MST 6:09 PM MST
Astronomical Twilight 5:54 AM MST 6:42 PM MST
Moon 10:05 AM MST (1/16) 11:05 PM MST (1/16)
Length of Visible Light 10h 32m
Length of Day
9h 31m
Waxing Crescent, 29% of the Moon is Illuminated
Jan 16
Waxing Crescent
Jan 18
First Quarter
Jan 26
Full
Feb 3
Last Quarter
Feb 10
New

Hourly Weather History & Observations

Time (MST) Temp. Windchill Dew Point Humidity Pressure Visibility Wind Dir Wind Speed Gust Speed Precip Events Conditions
12:53 AM 12.9 °F -5.7 °F 5.0 °F 71% 30.45 in 10.0 mi WSW 21.9 mph 34.5 mph N/A   Clear
1:53 AM 12.9 °F -3.9 °F 3.9 °F 67% 30.45 in 10.0 mi West 17.3 mph 25.3 mph N/A   Clear
2:53 AM 12.9 °F -6.5 °F 5.0 °F 71% 30.47 in 10.0 mi WSW 24.2 mph 33.4 mph N/A   Clear
3:53 AM 12.9 °F -3.4 °F 3.9 °F 67% 30.45 in 10.0 mi West 16.1 mph 28.8 mph N/A   Clear
4:53 AM 12.9 °F -0.2 °F 5.0 °F 71% 30.48 in 10.0 mi SW 10.4 mph 19.6 mph N/A   Clear
5:53 AM 12.9 °F 3.8 °F 6.1 °F 74% 30.51 in 10.0 mi Variable 5.8 mph - N/A   Clear
6:53 AM 12.9 °F 1.6 °F 5.0 °F 71% 30.54 in 10.0 mi WSW 8.1 mph - N/A   Clear
7:53 AM 14.0 °F -2.0 °F 6.1 °F 71% 30.53 in 10.0 mi WSW 16.1 mph 23.0 mph N/A   Clear
8:53 AM 15.1 °F -2.9 °F 6.1 °F 68% 30.55 in 10.0 mi SW 21.9 mph 29.9 mph N/A   Clear
9:53 AM 19.0 °F 2.7 °F 9.0 °F 65% 30.55 in 10.0 mi WSW 20.7 mph 32.2 mph N/A   Clear
10:53 AM 19.9 °F 9.3 °F 9.0 °F 62% 30.52 in 10.0 mi NW 9.2 mph 20.7 mph N/A   Clear
11:53 AM 21.0 °F 7.6 °F 10.0 °F 63% 30.51 in 10.0 mi WSW 15.0 mph 25.3 mph N/A   Clear
1:53 PM 25.0 °F 10.9 °F 10.9 °F 55% 30.49 in 10.0 mi WSW 19.6 mph 31.1 mph N/A   Clear
2:53 PM 25.0 °F 10.9 °F 10.9 °F 55% 30.49 in 10.0 mi WSW 19.6 mph 28.8 mph N/A   Clear
3:53 PM 25.0 °F 11.3 °F 10.9 °F 55% 30.49 in 10.0 mi WSW 18.4 mph 23.0 mph N/A   Clear
4:53 PM 23.0 °F - 10.0 °F 58% 30.52 in 10.0 mi Calm Calm - N/A   Clear
5:53 PM 19.0 °F 12.3 °F 8.1 °F 62% 30.56 in 10.0 mi South 4.6 mph - N/A   Clear
6:53 PM 18.0 °F 8.7 °F 8.1 °F 65% 30.57 in 10.0 mi SSW 6.9 mph - N/A   Clear
7:53 PM 17.1 °F - 7.0 °F 65% 30.58 in 10.0 mi Calm Calm - N/A   Clear
8:53 PM 18.0 °F 12.7 °F 7.0 °F 62% 30.58 in 10.0 mi West 3.5 mph - N/A   Clear
9:53 PM 10.9 °F 2.9 °F 3.9 °F 73% 30.60 in 10.0 mi West 4.6 mph - N/A   Clear
10:53 PM 10.9 °F 1.4 °F 3.9 °F 73% 30.60 in 10.0 mi South 5.8 mph - N/A   Clear
11:53 PM 6.1 °F - 1.9 °F 83% 30.63 in 10.0 mi Calm Calm - N/A   Clear